Terminal Aerodrome Forecast
Issued by NWS Sterling, VA

Current Version | Previous Version | Graphics & Text | Print | Product List | Glossary On
Versions: 1 2 3 4 5 6 7 8 9 10 11 12 13 14 15 16 17 18
540
FTUS41 KLWX 241341 AAA
TAFMRB
TAF AMD
KMRB 241341Z 2414/2512 VRB03KT 4SM -RA OVC070
     FM241600 18006KT P6SM OVC070
     FM241900 19010G17KT P6SM BKN060
     FM250000 21006KT P6SM BKN250
     FM251100 00000KT P6SM OVC140=

USA.gov is the U.S. government's official web portal to all federal, state and local government web resources and services.